M0UPS-13 Weather Reports


Display with metric or nautical units.
time (UTC)temp
F
wind
direction
speed
MPH
gust
MPH
rain 1hr
in
rain 24hr
in
rain mn
in
humidity
%
barometer
mb
20260507080002 58 82 3.0 5.0 0.00 0.00 0.00 60 1016.6
20260507075502 58 152 4.0 4.0 0.00 0.00 0.00 62 1016.4
20260507075002 57 224 0.0 2.0 0.00 0.00 0.00 64 1016.6
20260507074502 55 218 0.0 2.0 0.00 0.00 0.00 69 1016.5
20260507074002 54 260 1.0 2.0 0.00 0.00 0.00 72 1016.6
20260507073503 54 297 1.0 3.0 0.00 0.00 0.00 72 1016.6
20260507073002 54 33 3.0 3.0 0.00 0.00 0.00 72 1016.7
20260507072502 54 245 0.0 3.0 0.00 0.00 0.00 71 1016.7
20260507072002 55 286 1.0 2.0 0.00 0.00 0.00 71 1016.6
20260507071502 55 239 2.0 3.0 0.00 0.00 0.00 69 1016.7
20260507071002 56 224 1.0 2.0 0.00 0.00 0.00 70 1016.6
20260507070502 54 316 1.0 2.0 0.00 0.00 0.00 72 1016.5
20260507070003 54 268 1.0 3.0 0.00 0.00 0.00 73 1016.7
20260507065502 54 216 1.0 2.0 0.00 0.00 0.00 73 1016.5
20260507065002 54 320 1.0 4.0 0.00 0.00 0.00 73 1016.7
20260507064502 53 325 2.0 4.0 0.00 0.00 0.00 73 1016.5
20260507064002 53 306 2.0 3.0 0.00 0.00 0.00 74 1016.5
20260507063502 52 328 1.0 3.0 0.00 0.00 0.00 75 1016.4
20260507063002 53 305 0.0 2.0 0.00 0.00 0.00 72 1016.5
20260507062502 52 305 0.0 0.0 0.00 0.00 0.00 75 1016.5
20260507062002 53 305 0.0 0.0 0.00 0.00 0.00 75 1016.3
20260507061502 52 305 0.0 0.0 0.00 0.00 0.00 75 1016.3
20260507061002 51 305 0.0 0.0 0.00 0.00 0.00 79 1016.3
20260507060502 50 305 0.0 0.0 0.00 0.00 0.00 81 1016.3
20260507060002 48 305 0.0 0.0 0.00 0.00 0.00 85 1016.1
20260507055502 47 305 0.0 0.0 0.00 0.00 0.00 89 1016.2
20260507055002 46 305 0.0 0.0 0.00 0.00 0.00 88 1016.2
20260507054502 46 305 0.0 0.0 0.00 0.00 0.00 89 1016.3
20260507054002 45 305 0.0 0.0 0.00 0.00 0.00 90 1016.3
20260507053502 45 305 0.0 0.0 0.00 0.00 0.00 90 1016.1
20260507053003 45 305 0.0 0.0 0.00 0.00 0.00 90 1016.0
20260507052502 45 305 0.0 0.0 0.00 0.00 0.00 89 1016.1
20260507052003 45 305 0.0 0.0 0.00 0.00 0.00 89 1016.1
20260507051502 46 305 0.0 0.0 0.00 0.00 0.00 89 1016.1
20260507051002 46 305 0.0 0.0 0.00 0.00 0.00 90 1016.0
20260507050502 46 305 0.0 0.0 0.00 0.00 0.00 90 1015.9
20260507050002 46 305 0.0 0.0 0.00 0.00 0.00 90 1016.0
20260507045502 46 305 1.0 2.0 0.00 0.00 0.00 91 1016.0
20260507045002 46 305 0.0 0.0 0.00 0.00 0.00 91 1016.0
20260507044502 45 305 0.0 0.0 0.00 0.00 0.00 91 1016.0
20260507044002 45 305 0.0 0.0 0.00 0.00 0.00 91 1015.9
20260507043502 45 305 0.0 0.0 0.00 0.00 0.00 91 1015.9
20260507043002 45 305 0.0 0.0 0.00 0.00 0.00 91 1015.9
20260507042502 45 305 0.0 0.0 0.00 0.00 0.00 91 1015.9
20260507042002 45 305 0.0 0.0 0.00 0.00 0.00 91 1015.9
20260507041502 46 305 0.0 0.0 0.00 0.00 0.00 91 1016.0
20260507041002 46 305 0.0 0.0 0.00 0.00 0.00 91 1015.9
20260507040502 46 305 0.0 0.0 0.00 0.00 0.00 91 1015.9
20260507040002 46 305 0.0 0.0 0.00 0.00 0.00 91 1015.9
20260507035502 46 305 0.0 0.0 0.00 0.00 0.00 91 1015.9
20260507035002 45 305 0.0 0.0 0.00 0.00 0.00 91 1015.9
20260507034502 45 305 0.0 0.0 0.00 0.00 0.00 91 1015.9
20260507034002 45 305 0.0 0.0 0.00 0.00 0.00 91 1015.9
20260507033502 45 305 0.0 0.0 0.00 0.00 0.00 90 1015.9
20260507033002 45 305 0.0 0.0 0.00 0.00 0.00 90 1015.8
20260507032502 45 305 0.0 0.0 0.00 0.00 0.00 90 1015.8
20260507032002 46 305 0.0 0.0 0.00 0.00 0.00 90 1015.7
20260507031502 46 305 0.0 0.0 0.00 0.00 0.00 90 1015.7
20260507031002 46 305 0.0 0.0 0.00 0.00 0.00 89 1015.9
20260507030502 46 305 0.0 0.0 0.00 0.00 0.00 89 1015.7
20260507030002 46 305 0.0 0.0 0.00 0.00 0.00 88 1015.8
20260507025502 46 305 0.0 0.0 0.00 0.00 0.00 88 1015.8
20260507025002 46 305 0.0 0.0 0.00 0.00 0.00 88 1015.8
20260507024502 47 305 0.0 0.0 0.00 0.00 0.00 88 1015.7
20260507024002 47 305 0.0 0.0 0.00 0.00 0.00 87 1015.8
20260507023502 47 305 0.0 0.0 0.00 0.00 0.00 87 1015.9
20260507023002 47 305 0.0 0.0 0.00 0.00 0.00 87 1015.9
20260507022502 47 305 0.0 0.0 0.00 0.00 0.00 87 1015.7
20260507022110 47 305 0.0 0.0 0.00 0.00 0.00 86 1015.6
20260507021502 48 305 0.0 0.0 0.00 0.00 0.00 86 1015.6
20260507021002 48 305 0.0 0.0 0.00 0.00 0.00 86 1015.5
20260507020503 48 305 0.0 0.0 0.00 0.00 0.00 86 1015.5
20260507020002 48 305 0.0 0.0 0.00 0.00 0.00 86 1015.5
20260507015502 48 305 0.0 0.0 0.00 0.00 0.00 86 1015.6
20260507015002 48 305 0.0 0.0 0.00 0.00 0.00 86 1015.6
20260507014502 48 305 0.0 0.0 0.00 0.00 0.00 87 1015.6
20260507014002 47 305 0.0 0.0 0.00 0.00 0.00 87 1015.8
20260507013502 47 305 0.0 0.0 0.00 0.00 0.00 87 1015.6
20260507013002 47 305 0.0 0.0 0.00 0.00 0.00 87 1015.4
20260507012502 47 305 0.0 0.0 0.00 0.00 0.00 87 1015.7
20260507012002 47 305 0.0 0.0 0.00 0.00 0.00 87 1015.7
20260507011502 47 305 0.0 0.0 0.00 0.00 0.00 86 1015.5
20260507011002 47 305 0.0 0.0 0.00 0.00 0.00 85 1015.6
20260507010502 47 305 0.0 0.0 0.00 0.00 0.00 85 1015.7
20260507010002 47 305 0.0 0.0 0.00 0.00 0.00 84 1015.5
20260507005502 48 305 0.0 0.0 0.00 0.00 0.00 84 1015.4
20260507005002 48 305 0.0 0.0 0.00 0.00 0.00 84 1015.5
20260507004502 48 305 0.0 0.0 0.00 0.00 0.00 84 1015.5
20260507004002 48 305 0.0 0.0 0.00 0.00 0.00 83 1015.6
20260507003502 48 305 0.0 0.0 0.00 0.00 0.00 82 1015.6
20260507003002 48 305 0.0 0.0 0.00 0.00 0.00 82 1015.4
20260507002502 49 305 0.0 0.0 0.00 0.00 0.00 81 1015.6
20260507002002 49 305 0.0 0.0 0.00 0.00 0.00 81 1015.4
20260507001503 49 306 0.0 0.0 0.00 0.00 0.00 81 1015.4
20260507001002 49 306 0.0 0.0 0.00 0.00 0.00 80 1015.7
20260507000502 49 305 0.0 0.0 0.00 0.00 0.00 80 1015.7
20260507000003 49 305 0.0 0.0 0.00 0.00 0.00 79 1015.7
20260506235502 49 304 0.0 0.0 0.00 0.00 0.00 79 1015.5
20260506235002 50 305 0.0 0.0 0.00 0.00 0.00 78 1015.4
20260506234502 50 305 0.0 0.0 0.00 0.00 0.00 78 1015.5
20260506234002 50 305 0.0 0.0 0.00 0.00 0.00 77 1015.5
20260506233502 50 305 0.0 0.0 0.00 0.00 0.00 77 1015.3
20260506233002 50 305 0.0 0.0 0.00 0.00 0.00 77 1015.4
20260506232502 50 304 0.0 2.0 0.00 0.00 0.00 76 1015.5
20260506232003 50 294 0.0 2.0 0.00 0.00 0.00 76 1015.3
20260506231502 50 292 0.0 2.0 0.00 0.00 0.00 76 1015.3
20260506231002 50 287 0.0 0.0 0.00 0.00 0.00 76 1015.5
20260506230502 50 295 0.0 3.0 0.00 0.00 0.00 76 1015.5
20260506230002 50 241 0.0 0.0 0.00 0.00 0.00 75 1015.4
20260506225502 50 241 0.0 0.0 0.00 0.00 0.00 75 1015.5
20260506225002 50 241 0.0 0.0 0.00 0.00 0.00 74 1015.4
20260506224502 50 241 0.0 0.0 0.00 0.00 0.00 74 1015.4
20260506224002 50 241 0.0 0.0 0.00 0.00 0.00 73 1015.4
20260506223502 50 241 0.0 0.0 0.00 0.00 0.00 72 1015.4
20260506223002 50 241 0.0 0.0 0.00 0.00 0.00 72 1015.2
20260506222502 50 241 0.0 0.0 0.00 0.00 0.00 71 1015.3
20260506222002 50 241 0.0 0.0 0.00 0.00 0.00 71 1015.2
20260506221502 50 240 0.0 0.0 0.00 0.00 0.00 70 1015.3
20260506221002 51 240 0.0 0.0 0.00 0.00 0.00 69 1015.3
20260506220502 51 240 0.0 0.0 0.00 0.00 0.00 69 1015.1
20260506220002 51 240 0.0 0.0 0.00 0.00 0.00 68 1015.1
20260506215502 51 240 0.0 0.0 0.00 0.00 0.00 68 1015.2
20260506215002 51 240 0.0 0.0 0.00 0.00 0.00 68 1015.2
20260506214002 51 342 2.0 3.0 0.00 0.00 0.00 66 1015.2
20260506213503 52 246 0.0 2.0 0.00 0.00 0.00 66 1015.2
20260506213002 52 25 3.0 4.0 0.00 0.00 0.00 65 1015.2
20260506212502 52 93 2.0 3.0 0.00 0.00 0.00 66 1015.3
20260506212002 52 247 0.0 0.0 0.00 0.00 0.00 66 1015.1
20260506211502 52 247 1.0 2.0 0.00 0.00 0.00 65 1015.1
20260506211002 52 230 0.0 0.0 0.00 0.00 0.00 64 1015.0
20260506210502 52 300 0.0 3.0 0.00 0.00 0.00 64 1015.1
20260506210002 52 302 0.0 3.0 0.00 0.00 0.00 63 1014.9
20260506205502 52 338 1.0 3.0 0.00 0.00 0.00 63 1014.9
20260506205002 52 299 0.0 3.0 0.00 0.00 0.00 63 1015.1
20260506204502 52 283 1.0 3.0 0.00 0.00 0.00 63 1015.0
20260506204002 52 68 3.0 5.0 0.00 0.00 0.00 63 1014.7
20260506203502 52 17 2.0 3.0 0.00 0.00 0.00 63 1015.1
20260506203002 53 261 0.0 2.0 0.00 0.00 0.00 63 1015.0
20260506202502 53 284 0.0 0.0 0.00 0.00 0.00 62 1014.7
20260506202002 53 267 1.0 2.0 0.00 0.00 0.00 62 1014.9
20260506201502 53 266 0.0 0.0 0.00 0.00 0.00 61 1014.7
20260506201002 53 216 1.0 2.0 0.00 0.00 0.00 60 1014.5
20260506200503 53 250 0.0 0.0 0.00 0.00 0.00 60 1014.6
20260506200002 53 241 1.0 2.0 0.00 0.00 0.00 60 1014.3
20260506195502 53 251 1.0 3.0 0.00 0.00 0.00 60 1014.4
20260506195002 53 231 0.0 0.0 0.00 0.00 0.00 59 1014.4
20260506194502 53 234 1.0 2.0 0.00 0.00 0.00 60 1014.4
20260506194002 53 275 0.0 2.0 0.00 0.00 0.00 60 1014.2
20260506193502 53 248 0.0 2.0 0.00 0.00 0.00 60 1014.1
20260506193004 53 248 0.0 3.0 0.00 0.00 0.00 60 1014.1
20260506192502 53 224 0.0 3.0 0.00 0.00 0.00 60 1013.9
20260506192002 54 226 1.0 3.0 0.00 0.00 0.00 60 1014.1
20260506191502 54 282 0.0 3.0 0.00 0.00 0.00 60 1014.0
20260506191004 54 291 0.0 2.0 0.00 0.00 0.00 59 1014.0
20260506190502 54 311 1.0 2.0 0.00 0.00 0.00 59 1014.0
20260506190002 54 282 0.0 0.0 0.00 0.00 0.00 59 1013.9
20260506185502 54 251 1.0 3.0 0.00 0.00 0.00 58 1013.9
20260506185002 54 209 0.0 2.0 0.00 0.00 0.00 57 1013.9
20260506184503 55 287 0.0 2.0 0.00 0.00 0.00 56 1013.9
20260506184002 55 211 1.0 2.0 0.00 0.00 0.00 54 1013.8
20260506183502 55 277 0.0 2.0 0.00 0.00 0.00 54 1013.8
20260506183002 55 303 1.0 3.0 0.00 0.00 0.00 53 1013.8
20260506182502 55 316 2.0 4.0 0.00 0.00 0.00 52 1013.7
20260506182006 55 275 1.0 4.0 0.00 0.00 0.00 52 1013.7
20260506181502 55 21 3.0 4.0 0.00 0.00 0.00 52 1013.6
20260506181003 55 280 1.0 5.0 0.00 0.00 0.00 52 1013.5
20260506180502 55 277 0.0 2.0 0.00 0.00 0.00 52 1013.6
20260506180003 55 347 1.0 3.0 0.00 0.00 0.00 52 1013.5
20260506175502 55 302 2.0 5.0 0.00 0.00 0.00 54 1013.4
20260506175002 55 201 1.0 2.0 0.00 0.00 0.00 54 1013.5
20260506174502 55 241 1.0 2.0 0.00 0.00 0.00 54 1013.4
20260506174002 55 286 0.0 0.0 0.00 0.00 0.00 53 1013.2
20260506173502 55 279 1.0 3.0 0.00 0.00 0.00 53 1013.3
20260506173002 56 240 0.0 2.0 0.00 0.00 0.00 53 1013.3
20260506172502 56 279 0.0 3.0 0.00 0.00 0.00 52 1013.1
20260506172002 56 262 0.0 2.0 0.00 0.00 0.00 52 1013.1
20260506171502 56 289 0.0 3.0 0.00 0.00 0.00 53 1013.3
20260506171002 56 243 0.0 2.0 0.00 0.00 0.00 53 1013.2
20260506170502 56 315 1.0 3.0 0.00 0.00 0.00 52 1013.1
20260506170002 56 344 4.0 6.0 0.00 0.00 0.00 51 1013.2
20260506165502 57 245 0.0 3.0 0.00 0.00 0.00 53 1013.1
20260506165002 58 276 1.0 3.0 0.00 0.00 0.00 53 1013.1
20260506164502 59 220 1.0 3.0 0.00 0.00 0.00 51 1013.1
20260506164002 60 113 1.0 3.0 0.00 0.00 0.00 50 1013.2
20260506163502 60 296 0.0 6.0 0.00 0.00 0.00 50 1013.1
20260506163002 60 275 0.0 2.0 0.00 0.00 0.00 53 1013.3
20260506162502 60 231 1.0 2.0 0.00 0.00 0.00 51 1013.2
20260506162002 58 290 1.0 2.0 0.00 0.00 0.00 52 1013.3
20260506161502 58 223 2.0 3.0 0.00 0.00 0.00 52 1013.2
20260506161002 57 281 0.0 3.0 0.00 0.00 0.00 54 1013.2
20260506160502 57 4 1.0 4.0 0.00 0.00 0.00 52 1013.3
20260506160002 57 281 0.0 2.0 0.00 0.00 0.00 56 1013.2
20260506155503 57 246 1.0 2.0 0.00 0.00 0.00 54 1013.4
20260506155002 56 266 1.0 2.0 0.00 0.00 0.00 55 1013.3
20260506154502 56 45 3.0 5.0 0.00 0.00 0.00 53 1013.5
20260506154003 56 344 2.0 6.0 0.00 0.00 0.00 53 1013.5
20260506153503 56 333 1.0 3.0 0.00 0.00 0.00 55 1013.5
20260506153002 56 66 2.0 4.0 0.00 0.00 0.00 55 1013.5
20260506152502 56 333 1.0 3.0 0.00 0.00 0.00 56 1013.4
20260506152002 56 83 3.0 3.0 0.00 0.00 0.00 56 1013.4
20260506151502 56 278 1.0 5.0 0.00 0.00 0.00 57 1013.3
20260506151002 56 290 0.0 3.0 0.00 0.00 0.00 58 1013.5
20260506150502 56 248 2.0 3.0 0.00 0.00 0.00 57 1013.5
20260506150002 55 256 0.0 2.0 0.00 0.00 0.00 59 1013.5
20260506145502 56 98 4.0 7.0 0.00 0.00 0.00 56 1013.4
20260506145002 55 279 0.0 3.0 0.00 0.00 0.00 59 1013.4
20260506144502 55 147 1.0 3.0 0.00 0.00 0.00 57 1013.6
20260506144002 55 174 3.0 7.0 0.00 0.00 0.00 56 1013.5
20260506143502 56 115 2.0 6.0 0.00 0.00 0.00 57 1013.6
20260506143002 56 21 1.0 5.0 0.00 0.00 0.00 56 1013.3
20260506142502 56 280 1.0 2.0 0.00 0.00 0.00 58 1013.6
20260506142002 57 4 2.0 5.0 0.00 0.00 0.00 54 1013.4
20260506141502 58 38 3.0 6.0 0.00 0.00 0.00 53 1013.3
20260506141002 59 230 1.0 3.0 0.00 0.00 0.00 52 1013.4
20260506140502 59 201 1.0 4.0 0.00 0.00 0.00 52 1013.2
20260506140002 59 120 3.0 5.0 0.00 0.00 0.00 50 1013.4
20260506135502 59 93 2.0 5.0 0.00 0.00 0.00 51 1013.6
20260506135002 59 267 1.0 3.0 0.00 0.00 0.00 52 1013.4
20260506134502 59 189 1.0 6.0 0.00 0.00 0.00 51 1013.5
20260506134002 59 120 3.0 6.0 0.00 0.00 0.00 51 1013.3
20260506133502 58 25 2.0 4.0 0.00 0.00 0.00 55 1013.4
20260506133002 57 240 1.0 4.0 0.00 0.00 0.00 55 1013.6
20260506132502 57 270 0.0 2.0 0.00 0.00 0.00 55 1013.5
20260506132002 57 271 1.0 6.0 0.00 0.00 0.00 56 1013.3
20260506131502 57 277 1.0 7.0 0.00 0.00 0.00 56 1013.5
20260506131004 58 228 2.0 3.0 0.00 0.00 0.00 55 1013.4
20260506130502 58 271 2.0 4.0 0.00 0.00 0.00 53 1013.4
20260506130002 60 321 3.0 5.0 0.00 0.00 0.00 50 1013.2
20260506125502 60 287 1.0 3.0 0.00 0.00 0.00 47 1013.3
20260506125002 62 249 1.0 5.0 0.00 0.00 0.00 47 1013.4
20260506124502 63 279 2.0 4.0 0.00 0.00 0.00 47 1013.2
20260506124002 60 298 3.0 4.0 0.00 0.00 0.00 49 1013.3
20260506123503 60 240 3.0 3.0 0.00 0.00 0.00 51 1013.4
20260506123002 62 251 3.0 4.0 0.00 0.00 0.00 47 1013.3
20260506122502 60 266 1.0 10.0 0.00 0.00 0.00 49 1013.3
20260506122002 61 243 2.0 3.0 0.00 0.00 0.00 48 1013.3
20260506121502 60 200 1.0 4.0 0.00 0.00 0.00 51 1013.6
20260506121002 62 253 2.0 4.0 0.00 0.00 0.00 47 1013.4
20260506120502 61 346 5.0 7.0 0.00 0.00 0.00 48 1013.5
20260506120002 60 234 1.0 2.0 0.00 0.00 0.00 51 1013.4
20260506115503 60 209 1.0 5.0 0.00 0.00 0.00 50 1013.5
20260506115002 58 320 1.0 2.0 0.00 0.00 0.00 54 1013.4
20260506114502 59 305 4.0 9.0 0.00 0.00 0.00 50 1013.3
20260506114002 59 314 3.0 5.0 0.00 0.00 0.00 48 1013.4
20260506113502 57 253 1.0 3.0 0.00 0.00 0.00 56 1013.2
20260506113002 58 263 2.0 3.0 0.00 0.00 0.00 52 1013.4
20260506112502 59 290 0.0 4.0 0.00 0.00 0.00 50 1013.5
20260506112002 60 286 1.0 4.0 0.00 0.00 0.00 48 1013.4
20260506111502 60 183 1.0 3.0 0.00 0.00 0.00 47 1013.4
20260506111002 58 292 3.0 5.0 0.00 0.00 0.00 51 1013.5
20260506110502 56 279 1.0 7.0 0.00 0.00 0.00 52 1013.5
20260506110002 59 313 3.0 5.0 0.00 0.00 0.00 49 1013.5
20260506105502 58 228 1.0 4.0 0.00 0.00 0.00 51 1013.4
20260506105002 59 214 2.0 11.0 0.00 0.00 0.00 49 1013.5
20260506104502 58 290 3.0 5.0 0.00 0.00 0.00 49 1013.6
20260506104002 56 268 1.0 2.0 0.00 0.00 0.00 56 1013.4
20260506103502 57 300 2.0 7.0 0.00 0.00 0.00 52 1013.5
20260506103002 58 302 3.0 9.0 0.00 0.00 0.00 51 1013.3
20260506102502 60 67 3.0 7.0 0.00 0.00 0.00 47 1013.6
20260506102003 58 252 0.0 3.0 0.00 0.00 0.00 53 1013.5
20260506101503 57 75 2.0 5.0 0.00 0.00 0.00 50 1013.7
20260506101002 55 81 1.0 4.0 0.00 0.00 0.00 54 1013.6
20260506100502 56 14 1.0 6.0 0.00 0.00 0.00 52 1013.7
20260506100002 58 268 1.0 7.0 0.00 0.00 0.00 51 1013.6
20260506095502 58 260 1.0 6.0 0.00 0.00 0.00 51 1013.6
20260506095002 58 122 4.0 7.0 0.00 0.00 0.00 49 1013.5
20260506094502 58 279 1.0 9.0 0.00 0.00 0.00 49 1013.6
20260506094002 58 254 3.0 4.0 0.00 0.00 0.00 49 1013.7
20260506093503 58 257 1.0 2.0 0.00 0.00 0.00 50 1013.7
20260506093002 58 271 0.0 4.0 0.00 0.00 0.00 51 1013.6
20260506092502 56 253 1.0 3.0 0.00 0.00 0.00 53 1013.7
20260506092002 55 169 2.0 3.0 0.00 0.00 0.00 55 1013.4
20260506091502 58 295 3.0 7.0 0.00 0.00 0.00 50 1013.5
20260506091002 58 250 2.0 3.0 0.00 0.00 0.00 52 1013.6
20260506090502 57 267 0.0 5.0 0.00 0.00 0.00 56 1013.4
20260506090002 57 227 1.0 4.0 0.00 0.00 0.00 54 1013.5
20260506085502 55 271 2.0 3.0 0.00 0.00 0.00 57 1013.5
20260506085002 56 318 4.0 6.0 0.00 0.00 0.00 53 1013.4
20260506084502 56 285 1.0 5.0 0.00 0.00 0.00 54 1013.5
20260506084002 58 237 1.0 4.0 0.00 0.00 0.00 58 1013.5
20260506083502 58 122 3.0 5.0 0.00 0.00 0.00 52 1013.4
20260506083002 57 279 2.0 4.0 0.00 0.00 0.00 54 1013.4
20260506082502 55 250 1.0 3.0 0.00 0.00 0.00 60 1013.4
20260506082002 55 303 3.0 5.0 0.00 0.00 0.00 59 1013.3
20260506081503 55 263 1.0 3.0 0.00 0.00 0.00 60 1013.3
20260506081002 55 159 1.0 4.0 0.00 0.00 0.00 62 1013.5
20260506080502 54 45 3.0 6.0 0.00 0.00 0.00 62 1013.4